Weather History for KHUT - May, 2014

Change the Weather History Date:

Friday, May 9, 2014

  Actual Average Record
Temperature  
Mean Temperature 62 °F -  
Max Temperature 78 °F 75 °F 102 °F (2011)
Min Temperature 48 °F 48 °F 37 °F (1997)
Degree Days  
Heating Degree Days 2    
Growing Degree Days 12 (Base 50)    
Moisture  
Dew Point 40 °F    
Average Humidity 49    
Maximum Humidity 74    
Minimum Humidity 25    
Precipitation  
Precipitation 0.01 in - - ()
Sea Level Pressure  
Sea Level Pressure 29.85 in    
Wind  
Wind Speed 10 mph (WSW)    
Max Wind Speed 22 mph    
Max Gust Speed 26 mph    
Visibility 10 miles    
Events Rain , Thunderstorm    
Averages and records for this station are not official NWS values.
T = Trace of Precipitation, MM = Missing Value Source: NWS Daily Summary

Daily Weather History Graph

Daily Weather History Graph

Search for Another Location

Airport or City:

Trip Planner

Search our weather history database for the weather conditions in past years. The results will help you decide how hot, cold, wet, or windy it might be!

Date:

Astronomy

May. 09, 2014 Rise Set
Actual Time 6:26 AM CDT 8:29 PM CDT
Civil Twilight 5:57 AM CDT 8:58 PM CDT
Nautical Twilight 5:22 AM CDT 9:34 PM CDT
Astronomical Twilight 4:43 AM CDT 10:13 PM CDT
Moon 3:33 PM CDT (5/9) 3:24 AM CDT (5/9)
Length of Visible Light 15h 01m
Length of Day
14h 03m
Waxing Gibbous, 74% of the Moon is Illuminated
May 9
Waxing Gibbous
May 14
Full
May 21
Last Quarter
May 28
New
Jun 5
First Quarter

Hourly Weather History & Observations

Time (CDT) Temp. Dew Point Humidity Pressure Visibility Wind Dir Wind Speed Gust Speed Precip Events Conditions
12:52 AM 53.1 °F 39.9 °F 61% 29.84 in 10.0 mi North 10.4 mph - N/A   Partly Cloudy
1:28 AM 54.0 °F 39.9 °F 59% 29.96 in 10.0 mi West 10.4 mph - N/A Thunderstorm Thunderstorm
1:52 AM 53.1 °F 42.1 °F 66% 29.76 in 10.0 mi ENE 21.9 mph 26.5 mph 0.01 in Rain , Thunderstorm Light Thunderstorms and Rain
2:03 AM 52.0 °F 42.1 °F 69% 29.82 in 10.0 mi ENE 18.4 mph 25.3 mph 0.00 in   Scattered Clouds
2:52 AM 53.1 °F 42.1 °F 66% 29.88 in 10.0 mi WNW 16.1 mph - 0.00 in   Scattered Clouds
3:52 AM 50.0 °F 41.0 °F 71% 29.87 in 10.0 mi NW 5.8 mph - N/A   Mostly Cloudy
4:52 AM 50.0 °F 41.0 °F 71% 29.85 in 10.0 mi North 6.9 mph - N/A   Overcast
5:52 AM 48.0 °F 39.9 °F 74% 29.87 in 10.0 mi NNW 6.9 mph - N/A   Clear
7:52 AM 50.0 °F 39.0 °F 66% 29.92 in 10.0 mi North 5.8 mph - N/A   Mostly Cloudy
8:52 AM 52.0 °F 39.9 °F 63% 29.94 in 10.0 mi NNW 9.2 mph - N/A   Scattered Clouds
10:52 AM 60.1 °F 39.9 °F 47% 29.92 in 10.0 mi Variable 4.6 mph - N/A   Clear
11:52 AM 64.0 °F 39.0 °F 40% 29.91 in 10.0 mi Variable 5.8 mph - N/A   Clear
12:52 PM 69.1 °F 39.0 °F 33% 29.89 in 10.0 mi Variable 3.5 mph - N/A   Clear
1:52 PM 71.1 °F 39.0 °F 31% 29.88 in 10.0 mi Variable 4.6 mph - N/A   Clear
2:52 PM 72.0 °F 37.9 °F 29% 29.85 in 10.0 mi Calm Calm - N/A   Clear
3:52 PM 75.0 °F 39.0 °F 27% 29.82 in 10.0 mi SW 11.5 mph 17.3 mph N/A   Clear
4:52 PM 75.0 °F 37.9 °F 26% 29.79 in 10.0 mi SW 5.8 mph - N/A   Clear
5:52 PM 77.0 °F 39.0 °F 25% 29.77 in 10.0 mi SSW 4.6 mph - N/A   Clear
6:52 PM 75.9 °F 39.0 °F 26% 29.76 in 10.0 mi SSE 9.2 mph - N/A   Clear
7:52 PM 72.0 °F 39.9 °F 31% 29.78 in 10.0 mi SSE 9.2 mph - N/A   Clear
8:52 PM 66.9 °F 41.0 °F 39% 29.79 in 10.0 mi SE 10.4 mph - N/A   Clear
10:52 PM 63.0 °F 43.0 °F 48% 29.80 in 10.0 mi SE 12.7 mph - N/A   Clear
11:52 PM 60.1 °F 44.1 °F 55% 29.79 in 10.0 mi SE 9.2 mph - N/A   Clear